Airfield :
LOGIN :

Register | Disclaimer

   EN    FR    IT 

 










Legend :    VFR   Marginal VFR   IFR   Intensive IFR   Very Intensive IFR
Visi :
Ceiling :
>= 8 km
>= 3000ft
5 to 8 km
1000 to 3000 ft
1500m to 5 km
500 to 1000 ft
800 to 1500m
200 to 500 ft
< 800m
< 200 ft
Symbols :   Thunderstorms  Fog  Heavy snow  Heavy precipitations  Wind > 20 kt
SIGMETs :     Misc.  Thunderstorms  Icing  Turbulence  Mountain Waves  Volcanic Ashes







- Airport Elevation : 239 ft
- IATA code : VRN


LIPX - Villafranca Int. Verona

CURRENT METAR :
  • 191150Z 11006KT 030V160 9999 SCT040 29/15 Q1020

EXPIRED METARs :
  • 191120Z 13005KT 090V180 9999 SCT040 29/17 Q1020
  • 191050Z 11006KT 080V140 9999 SCT040 28/17 Q1020
  • 191020Z 10005KT 050V170 9999 FEW040 28/17 Q1020
  • 190950Z 09006KT 050V130 9999 FEW040 28/17 Q1020
  • 190920Z 10007KT 050V130 CAVOK 28/17 Q1020

TAF TAF LIPX
Valid from the 19 at 12:00 until the 19 at 21:00 UTC


191100Z 1912/1921 09005KT 9999 SCT040
No reported NOTAMs for that airfield.



MET'MAP, your aeronautical weather chart ! - Copyright ORBIFLY December 2007 - Disclaimer

ORBIFLY MET'MAP TEAM :

Programming & Development : Alexandra Zaïnal
Concept & Development : Baudouin d'Aumeries
Co-Development & Prog : Marc-Olivier Méhu
Technical & hardware support : Manuel Goepfert

Contact : metmap@orbifly.com




SOURCES & CREDITS :

   NOAA